Location: Beutels
(47.8767°N, 9.8584°E)
Time: 05:27:39
(UTC+00:00)

Meteor 1-14 Rocket - Pass Details

Date: 19 May 2025
Orbit: 833 x 917 km, 81.3° (Epoch: 14 June)

Event Time Altitude Azimuth Distance (km) Brightness Sun altitude
Rises 21:12:50 0° 348° (NNW) 3,408 8.8 -16.7°
Reaches altitude 10° 21:15:15 10° 349° (N) 2,477 7.8 -16.9°
Maximum altitude 21:20:53 85° 79° (E) 867 4.2 -17.3°
Enters shadow 21:23:59 28° 166° (SSE) 1,551 5.0 -17.6°
